Location: Asheville, NC
(35.6000°N, 82.5500°W)
Time: 00:24:47
(UTC-04:00)

KAITUO 1B - Pass Details

Date: 11 March 2018
Orbit: 498 x 520 km, 97.4° (Epoch: 18 June)

Event Time Altitude Azimuth Distance (km) Brightness Sun altitude
Rises 06:42:56 0° 36° (NE) 2,639 ? -13.8°
Reaches altitude 10° 06:46:10 10° 67° (ENE) 1,750 ? -13.1°
Maximum altitude 06:47:48 12° 93° (E) 1,598 ? -12.8°
Drops below altitude 10° 06:49:26 10° 119° (ESE) 1,747 ? -12.4°
Sets 06:52:39 0° 149° (SSE) 2,630 ? -11.8°
